AEROCUBE 8C (41853 NORAD) Tracking and Keplerian Element Data

This shows tracking and keplerian element data for the satellite.

Feedback or suggestion? Click here.




ElementValue
Catalog41853
NameAEROCUBE 8C
Epoch Orbit49880
Epoch Day354.09933581
Epoch Year2025
RAAN203.2367
Inclination98.0752
Eccentricity0.0005256
Argument of Perigee335.1182
Mean Anonmoly24.9798
Mean Motion15.21367174
Decay Rate5.544E-05
L11 41853U 16067F 25354.09933581 .00005544 00000+0 25080-3 0 9993
L22 41853 98.0752 203.2367 0005256 335.1182 24.9798 15.21367174498803



Live tracking and technical data element details for AEROCUBE 8C (NORAD 41853). AEROCUBE 8C can be tracked NOW for your location showing map with azimuth and elevation plus other details from your city location.







IsCatalogInMostPopularTable: catalog: 41853, numindb: 637
Update: records affected: 1



GetName: 41853 AEROCUBE 8C

Hit Count: updated at: Thu, 16 Apr 2026 04:35:32 GMT